| time (UTC) | temp F | wind direction | speed MPH | gust MPH | rain 1hr in | rain 24hr in | rain mn in | humidity % | barometer mb |
| 20260831073303 | 69 | 178 | 0.0 | 0.0 | 0.00 | 0.00 | 0.00 | 88 | 1011.1 |
| 20260831071303 | 69 | 221 | 0.0 | 1.0 | 0.00 | 0.00 | 0.00 | 86 | 1011.0 |
| 20260831070303 | 69 | 264 | 0.0 | 1.0 | 0.00 | 0.00 | 0.00 | 86 | 1011.0 |
| 20260831064303 | 70 | 221 | 0.0 | 0.0 | 0.00 | 0.00 | 0.00 | 85 | 1010.8 |
| 20260831063302 | 70 | 51 | 0.0 | 1.0 | 0.00 | 0.00 | 0.00 | 84 | 1010.7 |
| 20260831061324 | 71 | 9 | 0.0 | 1.0 | 0.00 | 0.00 | 0.00 | 83 | 1010.7 |
| 20260831060302 | 71 | 36 | 0.0 | 1.0 | 0.00 | 0.00 | 0.00 | 82 | 1010.7 |
| 20260831054324 | 72 | 28 | 0.0 | 1.0 | 0.00 | 0.00 | 0.00 | 79 | 1010.7 |
| 20260831053302 | 72 | 50 | 0.0 | 1.0 | 0.00 | 0.00 | 0.00 | 78 | 1010.8 |
| 20260831051303 | 73 | 51 | 0.0 | 1.0 | 0.00 | 0.00 | 0.00 | 77 | 1010.8 |
| 20260831050304 | 73 | 348 | 0.0 | 2.0 | 0.00 | 0.00 | 0.00 | 77 | 1010.8 |
| 20260831044324 | 73 | 334 | 0.0 | 1.0 | 0.00 | 0.00 | 0.00 | 75 | 1010.8 |
| 20260831043303 | 74 | 34 | 0.0 | 2.0 | 0.00 | 0.00 | 0.00 | 75 | 1010.7 |
| 20260831041303 | 74 | 24 | 0.0 | 4.0 | 0.00 | 0.00 | 0.00 | 74 | 1010.4 |
| 20260831034303 | 75 | 297 | 2.0 | 4.0 | 0.00 | 0.00 | 0.00 | 74 | 1010.0 |
| 20260831033324 | 75 | 350 | 0.0 | 5.0 | 0.00 | 0.00 | 0.00 | 72 | 1009.9 |
| 20260831031303 | 75 | 317 | 1.0 | 6.0 | 0.00 | 0.00 | 0.00 | 74 | 1009.5 |
| 20260831030302 | 75 | 310 | 2.0 | 5.0 | 0.00 | 0.00 | 0.00 | 76 | 1009.3 |
| 20260831024303 | 76 | 311 | 1.0 | 6.0 | 0.00 | 0.00 | 0.00 | 79 | 1009.3 |
| 20260831023302 | 76 | 308 | 2.0 | 6.0 | 0.00 | 0.00 | 0.00 | 79 | 1009.3 |
| 20260831021303 | 78 | 306 | 3.0 | 7.0 | 0.00 | 0.00 | 0.00 | 76 | 1009.1 |
| 20260831020303 | 79 | 299 | 2.0 | 7.0 | 0.00 | 0.00 | 0.00 | 75 | 1009.1 |
| 20260831014803 | 81 | 303 | 2.0 | 5.0 | 0.00 | 0.00 | 0.00 | 73 | 1009.0 |
| 20260831013547 | 82 | 298 | 1.0 | 0.0 | 0.00 | 0.00 | 0.00 | 76 | 1009.1 |
| 20260831013324 | 82 | 239 | 1.0 | 4.0 | 0.00 | 0.00 | 0.00 | 77 | 1009.0 |
| 20260831011303 | 82 | 211 | 2.0 | 7.0 | 0.00 | 0.00 | 0.00 | 76 | 1009.0 |
| 20260831010303 | 82 | 212 | 2.0 | 5.0 | 0.00 | 0.00 | 0.00 | 74 | 1008.9 |
| 20260831004324 | 82 | 223 | 3.0 | 7.0 | 0.00 | 0.00 | 0.00 | 74 | 1009.0 |
| 20260831003302 | 83 | 213 | 2.0 | 10.0 | 0.00 | 0.00 | 0.00 | 73 | 1009.2 |
| 20260831001303 | 85 | 217 | 2.0 | 9.0 | 0.00 | 0.00 | 0.00 | 71 | 1009.2 |
| 20260831000303 | 85 | 211 | 2.0 | 9.0 | 0.00 | 0.00 | 0.00 | 71 | 1009.1 |
| 20260830234303 | 86 | 223 | 3.0 | 7.0 | 0.00 | 0.00 | 0.00 | 71 | 1009.1 |
| 20260830233302 | 86 | 219 | 2.0 | 7.0 | 0.00 | 0.00 | 0.00 | 70 | 1009.0 |
| 20260830231303 | 86 | 196 | 1.0 | 9.0 | 0.00 | 0.00 | 0.00 | 70 | 1009.3 |
| 20260830230303 | 86 | 221 | 2.0 | 9.0 | 0.00 | 0.00 | 0.00 | 71 | 1009.4 |
| 20260830224303 | 87 | 213 | 2.0 | 8.0 | 0.00 | 0.00 | 0.00 | 70 | 1009.4 |
| 20260830223303 | 87 | 203 | 2.0 | 8.0 | 0.00 | 0.00 | 0.00 | 71 | 1009.5 |
| 20260830221303 | 87 | 221 | 3.0 | 7.0 | 0.00 | 0.00 | 0.00 | 71 | 1009.9 |
| 20260830220303 | 87 | 225 | 3.0 | 10.0 | 0.00 | 0.00 | 0.00 | 71 | 1009.9 |
| 20260830214303 | 87 | 234 | 3.0 | 7.0 | 0.00 | 0.00 | 0.00 | 71 | 1010.0 |
| 20260830213303 | 87 | 239 | 3.0 | 9.0 | 0.00 | 0.00 | 0.00 | 70 | 1010.2 |
| 20260830211303 | 87 | 225 | 3.0 | 11.0 | 0.00 | 0.00 | 0.00 | 69 | 1010.6 |
| 20260830210303 | 87 | 210 | 3.0 | 9.0 | 0.00 | 0.00 | 0.00 | 69 | 1010.7 |
| 20260830204303 | 86 | 208 | 3.0 | 10.0 | 0.00 | 0.00 | 0.00 | 71 | 1010.8 |
| 20260830203302 | 86 | 210 | 2.0 | 8.0 | 0.00 | 0.00 | 0.00 | 72 | 1010.8 |
| 20260830201303 | 86 | 227 | 3.0 | 10.0 | 0.00 | 0.00 | 0.00 | 72 | 1010.8 |
| 20260830200303 | 86 | 187 | 2.0 | 7.0 | 0.00 | 0.00 | 0.00 | 72 | 1010.7 |
| 20260830194303 | 85 | 227 | 2.0 | 6.0 | 0.00 | 0.00 | 0.00 | 73 | 1010.9 |
| 20260830193324 | 86 | 229 | 3.0 | 7.0 | 0.00 | 0.00 | 0.00 | 73 | 1010.9 |
| 20260830191302 | 85 | 201 | 2.0 | 5.0 | 0.00 | 0.00 | 0.00 | 74 | 1011.0 |
| 20260830190303 | 85 | 215 | 3.0 | 9.0 | 0.00 | 0.00 | 0.00 | 74 | 1011.0 |
| 20260830184303 | 85 | 253 | 3.0 | 7.0 | 0.00 | 0.00 | 0.00 | 74 | 1011.2 |
| 20260830183303 | 85 | 222 | 2.0 | 10.0 | 0.00 | 0.00 | 0.00 | 75 | 1011.2 |
| 20260830181302 | 84 | 235 | 2.0 | 7.0 | 0.00 | 0.00 | 0.00 | 76 | 1011.0 |
| 20260830180303 | 84 | 225 | 2.0 | 10.0 | 0.00 | 0.00 | 0.00 | 76 | 1011.0 |
| 20260830174325 | 83 | 248 | 3.0 | 7.0 | 0.00 | 0.00 | 0.00 | 76 | 1011.1 |
| 20260830173346 | 84 | 273 | 3.0 | 7.0 | 0.00 | 0.00 | 0.00 | 75 | 1011.2 |
| 20260830171302 | 85 | 203 | 1.0 | 6.0 | 0.00 | 0.00 | 0.00 | 73 | 1011.1 |
| 20260830170303 | 85 | 179 | 1.0 | 4.0 | 0.00 | 0.00 | 0.00 | 70 | 1011.0 |
| 20260830164303 | 84 | 258 | 1.0 | 4.0 | 0.00 | 0.00 | 0.00 | 72 | 1011.1 |
| 20260830163303 | 84 | 103 | 1.0 | 3.0 | 0.00 | 0.00 | 0.00 | 72 | 1011.0 |
| 20260830161303 | 82 | 143 | 1.0 | 3.0 | 0.00 | 0.00 | 0.00 | 76 | 1011.0 |
| 20260830160303 | 82 | 115 | 1.0 | 3.0 | 0.00 | 0.00 | 0.00 | 76 | 1011.0 |
| 20260830154323 | 80 | 154 | 1.0 | 2.0 | 0.00 | 0.00 | 0.00 | 79 | 1011.1 |
| 20260830153303 | 79 | 97 | 1.0 | 3.0 | 0.00 | 0.00 | 0.00 | 80 | 1011.1 |
| 20260830151303 | 77 | 123 | 1.0 | 3.0 | 0.00 | 0.00 | 0.00 | 82 | 1011.2 |
| 20260830150302 | 76 | 44 | 1.0 | 3.0 | 0.00 | 0.00 | 0.00 | 84 | 1011.1 |
| 20260830144324 | 73 | 114 | 1.0 | 3.0 | 0.00 | 0.00 | 0.00 | 91 | 1011.0 |
| 20260830143303 | 71 | 90 | 1.0 | 2.0 | 0.00 | 0.00 | 0.00 | 95 | 1011.0 |
| 20260830141303 | 69 | 76 | 0.0 | 1.0 | 0.00 | 0.00 | 0.00 | 96 | 1010.9 |
| 20260830140303 | 69 | 19 | 0.0 | 1.0 | 0.00 | 0.00 | 0.00 | 96 | 1010.8 |
| 20260830134303 | 69 | 25 | 0.0 | 1.0 | 0.00 | 0.00 | 0.00 | 95 | 1010.7 |
| 20260830133303 | 69 | 93 | 0.0 | 1.0 | 0.00 | 0.00 | 0.00 | 95 | 1010.5 |
| 20260830131303 | 69 | 220 | 0.0 | 1.0 | 0.00 | 0.00 | 0.00 | 95 | 1010.1 |
| 20260830124303 | 69 | 21 | 0.0 | 1.0 | 0.00 | 0.00 | 0.00 | 94 | 1010.0 |
| 20260830123302 | 69 | 51 | 0.0 | 1.0 | 0.00 | 0.00 | 0.00 | 94 | 1010.1 |
| 20260830121302 | 70 | 51 | 0.0 | 1.0 | 0.00 | 0.00 | 0.00 | 93 | 1009.9 |
| 20260830120324 | 70 | 51 | 0.0 | 1.0 | 0.00 | 0.00 | 0.00 | 93 | 1009.9 |
| 20260830114303 | 70 | 37 | 0.0 | 1.0 | 0.00 | 0.00 | 0.00 | 93 | 1009.9 |
| 20260830113303 | 71 | 78 | 0.0 | 2.0 | 0.00 | 0.00 | 0.00 | 93 | 1009.8 |
| 20260830111303 | 71 | 124 | 0.0 | 1.0 | 0.00 | 0.00 | 0.00 | 93 | 1009.9 |
| 20260830110303 | 71 | 136 | 0.0 | 1.0 | 0.00 | 0.00 | 0.00 | 93 | 1009.8 |
| 20260830104324 | 70 | 108 | 0.0 | 1.0 | 0.00 | 0.00 | 0.00 | 94 | 1009.8 |
| 20260830103303 | 70 | 70 | 0.0 | 1.0 | 0.00 | 0.00 | 0.00 | 93 | 1009.8 |
| 20260830101302 | 70 | 93 | 0.0 | 1.0 | 0.00 | 0.00 | 0.00 | 93 | 1009.8 |
| 20260830100303 | 70 | 9 | 0.0 | 1.0 | 0.00 | 0.00 | 0.00 | 93 | 1009.9 |
| 20260830094303 | 71 | 51 | 0.0 | 1.0 | 0.00 | 0.00 | 0.00 | 92 | 1009.6 |
| 20260830093302 | 71 | 93 | 0.0 | 1.0 | 0.00 | 0.00 | 0.00 | 92 | 1009.5 |
| 20260830091302 | 71 | 78 | 0.0 | 1.0 | 0.00 | 0.00 | 0.00 | 91 | 1009.7 |
| 20260830090303 | 71 | 51 | 0.0 | 1.0 | 0.00 | 0.00 | 0.00 | 91 | 1009.8 |
| 20260830084303 | 72 | 75 | 1.0 | 1.0 | 0.00 | 0.00 | 0.00 | 90 | 1009.8 |
| 20260830083302 | 72 | 244 | 0.0 | 2.0 | 0.00 | 0.00 | 0.00 | 90 | 1009.8 |
| 20260830081303 | 72 | 214 | 0.0 | 2.0 | 0.00 | 0.00 | 0.00 | 89 | 1010.0 |
| 20260830074303 | 73 | 217 | 0.0 | 2.0 | 0.00 | 0.00 | 0.00 | 89 | 1010.1 |